Other Surface Observations
Issued by NWS

Home | Current Version | Previous Version | Text Only | Print | Product List | Glossary On
Versions: 1 2 3 4 5 6 7 8 9 10 11 12 13 14 15 16 17 18 19 20 21 22 23 24 25 26 27 28 29 30 31 32 33 34 35 36 37 38 39 40 41 42 43 44 45 46 47 48 49 50
276
SXUS52 KTAE 281819
OSOTAE
OSOTAE
North Florida/South Alabama/Southwest Georgia Weather Roundup
National Weather Service Tallahassee Florida
200 PM EDT FRI APR 28 2017

Note: "fair" indicates few or no clouds below 12,000 feet with no
significant weather and/or obstructions to visibility.

!FLZ017-115-028-034-025-281900
...North Florida...

CITY           SKY/WX    TMP DP  RH WIND       PRES   REMARKS
TALLAHASSEE    PTSUNNY   85  69  58 S14       30.05F
APALACHICOLA   SUNNY     82  75  79 SE12      30.05S
PERRY          SUNNY     89  64  43 S12       30.06F HX  91
CROSS CITY     MOSUNNY   91  68  46 S12       30.05F HX  95
JACKSONVILLE   MOSUNNY   92  67  43 S10       30.06F HX  95
$$

!FLZ112-006-005-002-011-281900
...Florida Panhandle...

CITY           SKY/WX    TMP DP  RH WIND       PRES   REMARKS
MARIANNA       MOSUNNY   86  69  56 S9        30.01F HX  90
BONIFAY        NOT AVBL
PANAMA CITY NW FAIR      82  71  69 S13G24    30.03S
TYNDALL AFB    SUNNY     84  73  70 SE18G24   30.02F HX  90
TYND DRONE APT FAIR      83  75  76 S18G29    30.02F HX  91
DE FUNIAK SPR  MOCLDY    84  71  64 S9G20     30.03S
EGLIN AFB      PTSUNNY   82  73  72 SE17      30.01F
DESTIN         PTSUNNY   82  78  88 SE13      30.02R HX  91
HURLBURT       PTSUNNY   80  68  67 SE15G21   30.00S
CRESTVIEW      CLOUDY    82  71  69 S13       30.02F
PENSACOLA      CLOUDY    81  73  76 SE15      30.00S
$$

!ALZ063-066-281900
...South Alabama...

CITY           SKY/WX    TMP DP  RH WIND       PRES   REMARKS
DOTHAN         MOSUNNY   88  69  53 S18G24    30.05F HX  92
OZARK CAIRNS   PTSUNNY   87  69  54 S15G23    30.01F HX  91
FT RUCKER HELI PTSUNNY   87  68  54 S14       30.01S HX  90
RUCKER HELI 3  FAIR      86  67  53 SW10G20   30.01S
RUCKER HELI 2  PTSUNNY   85  69  58 SW9       30.00F
FLORALA APT    LGT RAIN  85  68  56 S16G23    30.02F
ANDALUSIA      PTSUNNY   87  69  54 S8G21     30.00S HX  91
TROY           PTSUNNY   84  69  60 S9G21     30.01S
EUFALA         FAIR      88  69  53 S14G21    30.01F HX  92
MOBILE         CLOUDY    83  72  69 S15G25    29.98S
$$

!GAZ120>161-281900
...Southwest and South Central Georgia...

CITY           SKY/WX    TMP DP  RH WIND       PRES   REMARKS
THOMASVILLE    NOT AVBL
BAINBRIDGE     MOSUNNY   88  68  51 S9G17     30.03F HX  91
MOODY AFB      MOSUNNY   90  64  42 S13       30.04S HX  91
VALDOSTA       SUNNY     90  66  45 VRB7      30.05F HX  92
MOULTRIE       SUNNY     88  64  45 SW10G18   30.05F
BLAKELY        MOSUNNY   88  68  51 S8        30.03F HX  91
ALBANY         MOSUNNY   89  67  47 S15       30.05F HX  92
TIFTON         FAIR      88  66  48 SW8       30.05S HX  91
FITZGERALD     FAIR      88  67  49 S6G17     30.07F HX  91
CORDELE        FAIR      89  66  47 S8G16     30.05F HX  91
AMERICUS       FAIR      84  63  48 S10       30.06S
HOMERVILLE     FAIR      91  68  46 SW6       30.06F HX  95
$$

!GMZ750-755-770-775-281900
...Coastal and Buoy Obs...

STATION/POSITION TIME  TEMP    WIND        PRES    VSBY  WAVE
                       AIR SEA DIR/SP/G                  HT/PER
                 (UTC) (F)     (DEG/KT/KT) (MB)    (MI)  (FT/S)
KEATON BEACH     1800   78     170/ 10/ 12 1018.0F
CEDAR KEY        1800   81     240/  3/  4 1018.6F
C TOWER          1800   74     120/ 12/ 13 1018.0F
APALACHICOLA BUO 1750   75 74  140/ 12/ 14 1016.9F         3/ 7
PANAMA CITY BUOY 1750   75 75  130/ 14/ 16 1015.6F         3/ 7
MOBILE BUOY      1800   77 76  140/ 16/ 17 1014.3
ORANGE BCH AL BU 1750   76 75  130/ 14/ 17 1014.8S         4/ 7
$$




USA.gov is the U.S. government's official web portal to all federal, state and local government web resources and services.